| time (UTC) | temp F | wind direction | speed MPH | gust MPH | rain 1hr in | rain 24hr in | rain mn in | humidity % | barometer mb |
| 20260504081559 | 37 | 155 | 1.0 | 5.0 | 0.00 | 0.00 | 0.00 | 78 | 1012.7 |
| 20260504044533 | 44 | 159 | 0.0 | 2.0 | 0.00 | 0.00 | 0.00 | 70 | 1012.7 |
| 20260504043023 | 45 | 159 | 0.0 | 3.0 | 0.00 | 0.00 | 0.00 | 69 | 1012.7 |
| 20260504041521 | 45 | 159 | 0.0 | 3.0 | 0.00 | 0.00 | 0.00 | 69 | 1012.7 |
| 20260504040020 | 46 | 159 | 0.0 | 2.0 | 0.00 | 0.00 | 0.00 | 68 | 1012.7 |
| 20260504034520 | 46 | 159 | 0.0 | 1.0 | 0.00 | 0.00 | 0.00 | 67 | 1012.7 |
| 20260504033017 | 47 | 159 | 0.0 | 2.0 | 0.00 | 0.00 | 0.00 | 65 | 1012.7 |
| 20260504031518 | 48 | 159 | 0.0 | 2.0 | 0.00 | 0.00 | 0.00 | 64 | 1012.7 |
| 20260504024517 | 49 | 159 | 0.0 | 0.0 | 0.00 | 0.00 | 0.00 | 62 | 1012.9 |
| 20260504023016 | 49 | 159 | 0.0 | 3.0 | 0.00 | 0.00 | 0.00 | 61 | 1013.0 |
| 20260504021516 | 50 | 159 | 0.0 | 2.0 | 0.00 | 0.00 | 0.00 | 60 | 1013.0 |
| 20260504020015 | 50 | 159 | 0.0 | 2.0 | 0.00 | 0.00 | 0.00 | 60 | 1013.0 |
| 20260504014515 | 50 | 159 | 0.0 | 1.0 | 0.00 | 0.00 | 0.00 | 61 | 1012.9 |
| 20260504013023 | 51 | 159 | 0.0 | 2.0 | 0.00 | 0.00 | 0.00 | 60 | 1012.8 |
| 20260504011514 | 52 | 159 | 0.0 | 2.0 | 0.00 | 0.00 | 0.00 | 59 | 1012.6 |
| 20260504010013 | 52 | 159 | 0.0 | 1.0 | 0.00 | 0.00 | 0.00 | 58 | 1012.5 |
| 20260504004513 | 52 | 159 | 0.0 | 2.0 | 0.00 | 0.00 | 0.00 | 56 | 1012.3 |
| 20260504003019 | 52 | 159 | 0.0 | 2.0 | 0.00 | 0.00 | 0.00 | 55 | 1012.2 |
| 20260504001511 | 53 | 159 | 0.0 | 3.0 | 0.00 | 0.00 | 0.00 | 53 | 1012.0 |
| 20260504000009 | 54 | 159 | 1.0 | 5.0 | 0.00 | 0.00 | 0.00 | 50 | 1011.9 |
| 20260503234509 | 55 | 159 | 1.0 | 5.0 | 0.00 | 0.00 | 0.00 | 44 | 1011.8 |
| 20260503233009 | 56 | 159 | 5.0 | 8.0 | 0.00 | 0.00 | 0.00 | 40 | 1011.7 |
| 20260503231608 | 56 | 140 | 1.0 | 3.0 | 0.00 | 0.00 | 0.00 | 40 | 1011.7 |
| 20260503230008 | 57 | 140 | 1.0 | 4.0 | 0.00 | 0.00 | 0.00 | 40 | 1011.7 |
| 20260503224506 | 58 | 144 | 1.0 | 3.0 | 0.00 | 0.00 | 0.00 | 40 | 1011.8 |
| 20260503223006 | 58 | 273 | 0.0 | 3.0 | 0.00 | 0.00 | 0.00 | 38 | 1011.8 |
| 20260503221507 | 59 | 273 | 0.0 | 3.0 | 0.00 | 0.00 | 0.00 | 37 | 1011.8 |
| 20260503220009 | 58 | 276 | 1.0 | 4.0 | 0.00 | 0.00 | 0.00 | 37 | 1012.0 |
| 20260503214501 | 58 | 5 | 3.0 | 6.0 | 0.00 | 0.00 | 0.00 | 38 | 1012.1 |
| 20260503213059 | 57 | 294 | 2.0 | 12.0 | 0.00 | 0.00 | 0.00 | 39 | 1012.1 |
| 20260503211603 | 57 | 233 | 5.0 | 11.0 | 0.00 | 0.00 | 0.00 | 39 | 1012.2 |
| 20260503210056 | 56 | 214 | 10.0 | 19.0 | 0.00 | 0.00 | 0.00 | 40 | 1012.3 |
| 20260503204557 | 55 | 284 | 9.0 | 19.0 | 0.00 | 0.00 | 0.00 | 42 | 1012.5 |
| 20260503203101 | 55 | 281 | 6.0 | 16.0 | 0.00 | 0.00 | 0.00 | 39 | 1012.3 |
| 20260503201600 | 56 | 294 | 4.0 | 14.0 | 0.00 | 0.00 | 0.00 | 37 | 1012.3 |
| 20260503200054 | 56 | 345 | 6.0 | 16.0 | 0.00 | 0.00 | 0.00 | 36 | 1012.2 |
| 20260503194655 | 56 | 271 | 7.0 | 13.0 | 0.00 | 0.00 | 0.00 | 34 | 1012.4 |
| 20260503193051 | 56 | 285 | 6.0 | 12.0 | 0.00 | 0.00 | 0.00 | 34 | 1012.5 |
| 20260503191551 | 56 | 290 | 4.0 | 11.0 | 0.00 | 0.00 | 0.00 | 33 | 1012.5 |
| 20260503190053 | 57 | 178 | 3.0 | 15.0 | 0.00 | 0.00 | 0.00 | 33 | 1012.6 |
| 20260503184603 | 56 | 311 | 3.0 | 16.0 | 0.00 | 0.00 | 0.00 | 34 | 1012.8 |
| 20260503183049 | 55 | 263 | 3.0 | 12.0 | 0.00 | 0.00 | 0.00 | 33 | 1013.0 |
| 20260503181546 | 56 | 289 | 4.0 | 11.0 | 0.00 | 0.00 | 0.00 | 33 | 1013.3 |
| 20260503180040 | 55 | 285 | 8.0 | 13.0 | 0.00 | 0.00 | 0.00 | 33 | 1013.5 |
| 20260503174534 | 53 | 349 | 5.0 | 13.0 | 0.00 | 0.00 | 0.00 | 38 | 1013.7 |
| 20260503173035 | 52 | 51 | 2.0 | 15.0 | 0.00 | 0.00 | 0.00 | 37 | 1014.0 |
| 20260503171540 | 52 | 176 | 4.0 | 16.0 | 0.00 | 0.00 | 0.00 | 36 | 1014.1 |